Terminal Aerodrome Forecast
Issued by NWS Kansas City/Pleasant Hill, MO

Home | Current Version | Previous Version | Text Only | Print | Product List | Glossary On
Versions: 1 2 3 4 5 6 7 8 9 10 11 12 13 14
023
FTUS43 KEAX 141132
TAFMCI
TAF
KMCI 141132Z 1412/1512 35007KT P6SM SCT025 BKN035
     FM150600 28006KT P6SM BKN025=

USA.gov is the U.S. government's official web portal to all federal, state and local government web resources and services.